Time,TemperatureF,DewpointF,PressureIn,WindDirection,WindDirectionDegrees,WindSpeedMPH,WindSpeedGustMPH,Humidity,HourlyPrecipIn,Conditions,Clouds,dailyrainin,SoftwareType,DateUTC
2013-09-12 00:00:00,71.1,70.5,29.90,NE,48,0.0,0.0,98,0.00,,,0.09,VWS V14.01,2013-09-12 05:00:00,
2013-09-12 00:30:00,71.7,71.4,29.91,NE,48,0.0,0.0,99,0.01,,,0.01,VWS V14.01,2013-09-12 05:30:00,
2013-09-12 01:00:00,71.8,71.5,29.90,NE,48,0.0,0.0,99,0.03,,,0.03,VWS V14.01,2013-09-12 06:00:00,
2013-09-12 01:30:00,71.7,71.4,29.89,NE,48,0.0,0.0,99,0.03,,,0.03,VWS V14.01,2013-09-12 06:30:00,
2013-09-12 02:00:00,71.3,71.0,29.89,NE,48,0.0,0.0,99,0.02,,,0.03,VWS V14.01,2013-09-12 07:00:00,
2013-09-12 02:30:00,71.3,71.0,29.88,NE,48,0.0,0.0,99,0.00,,,0.03,VWS V14.01,2013-09-12 07:30:00,
2013-09-12 03:00:00,71.3,71.0,29.88,NE,48,0.0,0.0,99,0.00,,,0.03,VWS V14.01,2013-09-12 08:00:00,
2013-09-12 03:30:00,71.3,71.0,29.87,NE,48,0.0,0.0,99,0.00,,,0.03,VWS V14.01,2013-09-12 08:30:00,
2013-09-12 04:00:00,71.3,71.0,29.88,NE,48,0.0,0.0,99,0.00,,,0.03,VWS V14.01,2013-09-12 09:00:00,
2013-09-12 04:30:00,71.3,71.0,29.88,NE,48,0.0,0.0,99,0.00,,,0.03,VWS V14.01,2013-09-12 09:30:00,
2013-09-12 05:00:00,71.3,71.0,29.89,NE,48,0.0,0.0,99,0.00,,,0.03,VWS V14.01,2013-09-12 10:00:00,
2013-09-12 05:30:00,71.3,71.0,29.89,NE,48,0.0,0.0,99,0.00,,,0.03,VWS V14.01,2013-09-12 10:30:00,
2013-09-12 06:00:00,71.3,71.0,29.90,NE,48,0.0,0.0,99,0.00,,,0.03,VWS V14.01,2013-09-12 11:00:00,
2013-09-12 06:30:00,71.3,71.0,29.90,NE,48,0.0,1.0,99,0.00,,,0.03,VWS V14.01,2013-09-12 11:30:00,
2013-09-12 07:00:00,66.5,66.2,29.91,NE,48,0.0,0.0,99,0.00,,,0.03,VWS V14.01,2013-09-12 12:00:00,
2013-09-12 07:30:00,66.3,66.0,29.91,East,97,0.0,0.0,99,0.00,,,0.03,VWS V14.01,2013-09-12 12:30:00,
2013-09-12 08:00:00,66.3,66.0,29.91,South,179,0.0,0.0,99,0.00,,,0.03,VWS V14.01,2013-09-12 13:00:00,
2013-09-12 08:30:00,66.3,66.0,29.91,South,179,0.0,0.0,99,0.00,,,0.03,VWS V14.01,2013-09-12 13:30:00,
2013-09-12 09:00:00,66.3,66.0,29.91,South,179,0.0,0.0,99,0.00,,,0.03,VWS V14.01,2013-09-12 14:00:00,
2013-09-12 09:30:00,66.3,66.0,29.91,South,179,0.0,0.0,99,0.00,,,0.03,VWS V14.01,2013-09-12 14:30:00,
2013-09-12 10:00:00,77.1,65.3,29.91,South,179,0.0,1.0,67,0.00,,,0.03,VWS V14.01,2013-09-12 15:00:00,
2013-09-12 10:30:00,78.3,66.0,29.91,East,96,0.0,4.0,66,0.00,,,0.03,VWS V14.01,2013-09-12 15:30:00,
2013-09-12 11:00:00,79.6,69.0,29.90,East,97,0.0,1.0,70,0.00,,,0.03,VWS V14.01,2013-09-12 16:00:00,
2013-09-12 11:30:00,81.3,68.4,29.90,ESE,103,0.0,0.0,65,0.00,,,0.03,VWS V14.01,2013-09-12 16:30:00,
2013-09-12 12:00:00,81.2,66.5,29.88,East,96,0.0,4.0,61,0.00,,,0.03,VWS V14.01,2013-09-12 17:00:00,
2013-09-12 12:30:00,83.1,67.3,29.87,ESE,106,0.0,4.0,59,0.00,,,0.03,VWS V14.01,2013-09-12 17:30:00,
2013-09-12 13:00:00,83.9,66.5,29.85,NNE,15,2.0,7.0,56,0.00,,,0.03,VWS V14.01,2013-09-12 18:00:00,
2013-09-12 13:30:00,82.7,68.4,29.84,NNE,28,0.0,6.0,62,0.00,,,0.03,VWS V14.01,2013-09-12 18:30:00,
2013-09-12 14:00:00,83.4,67.1,29.83,NNE,24,0.0,5.0,58,0.00,,,0.03,VWS V14.01,2013-09-12 19:00:00,
2013-09-12 14:30:00,79.5,64.9,29.83,North,5,4.0,11.0,61,0.00,,,0.03,VWS V14.01,2013-09-12 19:30:00,
2013-09-12 15:00:00,78.4,65.7,29.83,NNE,21,4.0,13.0,65,0.00,,,0.03,VWS V14.01,2013-09-12 20:00:00,
2013-09-12 15:30:00,78.1,64.5,29.83,NNE,25,1.0,11.0,63,0.00,,,0.03,VWS V14.01,2013-09-12 20:30:00,
2013-09-12 16:00:00,77.1,66.6,29.83,ENE,59,2.0,12.0,70,0.00,,,0.03,VWS V14.01,2013-09-12 21:00:00,
2013-09-12 16:30:00,74.8,66.7,29.86,ESE,111,3.0,15.0,76,0.00,,,0.03,VWS V14.01,2013-09-12 21:30:00,
2013-09-12 17:00:00,69.9,65.2,29.87,NNE,18,5.0,14.0,85,0.00,,,0.03,VWS V14.01,2013-09-12 22:00:00,
2013-09-12 17:30:00,67.0,63.7,29.89,NNW,346,0.0,11.0,89,0.02,,,0.05,VWS V14.01,2013-09-12 22:30:00,
2013-09-12 18:00:00,66.9,62.9,29.90,NNW,342,0.0,11.0,87,0.02,,,0.05,VWS V14.01,2013-09-12 23:00:00,
2013-09-12 18:30:00,68.1,62.8,29.91,NNW,348,0.0,11.0,83,0.02,,,0.05,VWS V14.01,2013-09-12 23:30:00,
2013-09-12 19:00:00,67.5,61.8,29.91,North,355,3.0,13.0,82,0.00,,,0.05,VWS V14.01,2013-09-13 00:00:00,
2013-09-12 19:30:00,66.7,60.3,29.93,NE,38,0.0,11.0,80,0.00,,,0.05,VWS V14.01,2013-09-13 00:30:00,
2013-09-12 20:00:00,66.3,59.6,29.94,North,360,1.0,12.0,79,0.00,,,0.05,VWS V14.01,2013-09-13 01:00:00,
2013-09-12 20:30:00,66.8,59.0,29.95,NE,44,2.0,13.0,76,0.00,,,0.05,VWS V14.01,2013-09-13 01:30:00,
2013-09-12 21:00:00,66.2,59.5,29.95,NE,49,4.0,12.0,79,0.00,,,0.05,VWS V14.01,2013-09-13 02:00:00,
2013-09-12 21:30:00,66.2,59.9,29.96,NNW,334,6.0,13.0,80,0.00,,,0.05,VWS V14.01,2013-09-13 02:30:00,
2013-09-12 22:00:00,65.8,58.8,29.96,NNE,18,5.0,11.0,78,0.00,,,0.05,VWS V14.01,2013-09-13 03:00:00,
2013-09-12 22:30:00,65.3,57.5,29.97,NE,42,0.0,15.0,76,0.00,,,0.05,VWS V14.01,2013-09-13 03:30:00,
2013-09-12 23:00:00,64.7,57.3,29.98,NNE,15,6.0,15.0,77,0.00,,,0.05,VWS V14.01,2013-09-13 04:00:00,
2013-09-12 23:30:00,64.4,57.4,29.99,NE,40,5.0,16.0,78,0.00,,,0.05,VWS V14.01,2013-09-13 04:30:00,